Regional Weather Roundup
Issued by NWS

Home | Current Version | Previous Version | Graphics & Text | Print | Product List | Glossary On
Versions: 1 2 3 4 5 6 7 8 9 10 11 12 13 14 15 16 17 18 19 20 21 22 23 24 25 26 27 28 29 30 31 32 33 34 35 36 37 38 39 40 41 42 43 44 45 46 47 48 49 50
000
ASUS43 KLOT 270410
RWRIL

ILLINOIS REGIONAL WEATHER ROUNDUP
NATIONAL WEATHER SERVICE CHICAGO/ROMEOVILLE IL
1000 PM CST MON JAN 26 2015

NOTE: "FAIR" INDICATES FEW OR NO CLOUDS BELOW 12,000 FEET WITH NO
SIGNIFICANT WEATHER AND/OR OBSTRUCTIONS TO VISIBILITY.

* THESE STATIONS ARE NOT UNDER NWS QUALITY CONTROL. THEY ALSO MAY NOT
  REPORT WEATHER SUCH AS PRECIPITATION OR FOG.

ILZ001-002-007-009-015-016-024-270500-
NORTHWEST ILLINOIS

CITY           SKY/WX    TMP DP  RH WIND       PRES   REMARKS
MOLINE         CLOUDY    32  30  92 CALM      29.87S
STERLING*      CLOUDY    28  27  93 CALM      29.88S VSB 3/4
SAVANNA*       CLOUDY    28  27  95 CALM      29.89S FOG
$$

ILZ003-004-008-010-011-017-018-270500-
NORTH CENTRAL ILLINOIS

CITY           SKY/WX    TMP DP  RH WIND       PRES   REMARKS
ROCKFORD       LGT SNOW  26  24  92 SE3       29.90R FOG
FREEPORT*      CLOUDY    26  24  96 CALM      29.89F FOG
ROCHELLE*      CLOUDY    27  27  98 SE3       29.88S FOG
DE KALB*       MIX PCPN  25  25  97 S6        29.88S WCI  18
PERU*          CLOUDY    30  29  98 CALM      29.88S FOG
$$

ILZ005-006-012>014-019>023-270500-
NORTHEAST ILLINOIS

CITY           SKY/WX    TMP DP  RH WIND       PRES   REMARKS
CHICAGO-OHARE  LGT SNOW  26  24  92 SE5       29.90S FOG     WCI  20
CHICAGO-MIDWAY LGT SNOW  28  24  85 SE6       29.91S FOG     WCI  22
AURORA         CLOUDY    28  24  85 SE6       29.89S FOG     WCI  22
LANSING*       MIX PCPN  26  25  94 SE5       29.91F WCI  21
JOLIET*        LGT SNOW  27  26  96 SE5       29.90F WCI  21
WAUKEGAN       CLOUDY    27  25  93 CALM      29.90S
DUPAGE AIRPORT CLOUDY    26  24  92 SE5       29.88F FOG     WCI  20
KANKAKEE*      MIX PCPN  28  27  95 SE5       29.91S WCI  23
WHEELING       CLOUDY    26  23  88 SE5       29.92S FOG     WCI  20
MORRIS*        CLOUDY    28  28 100 SE6       29.88F FOG     WCI  22
ROMEOVILLE*    MIX PCPN  27  26  99 SE6       29.90F WCI  20
NORTHERLY ISL    N/A     26  24  92 S3          N/A
$$

LMZ740>746-270500-
SOUTHERN LAKE MICHIGAN

STATION/POSITION SKY/WX   TEMP    WIND        PRES    VSBY  WAVE
                          AIR SEA DIR/SP/G                  HT/PER
                          (F)     (DEG/KT/KT) (MB)    (MI)  (FT/S)
WAUKEGAN HARBOR            26     190/  5/  7   N/A
HARRISON CRIB              26     170/  9/ 10   N/A
BURNHAM HARBOR             26     160/  5/  6   N/A
CALUMET HARBOR             26     140/  4/  5   N/A
MICHIGAN CITY              23     120/  7/  8   N/A
$$

ILZ025>027-034>036-040-047-049-050-058-095>099-270500-
WEST-CENTRAL ILLINOIS

CITY           SKY/WX    TMP DP  RH WIND       PRES   REMARKS
QUINCY         CLOUDY    38  34  85 W6        29.90S WCI  33
GALESBURG*     CLOUDY    33  32  98 CALM      29.88S
MACOMB*        MOCLDY    32  31  99 NW7       29.90S WCI  25
JACKSONVILLE*  CLOUDY    35  32  88 SW5       29.89S WCI  31
PITTSFIELD*    CLOUDY    39  34  81 W6        29.90S WCI  35
$$

ILZ028>032-037-038-041>044-048-051>054-059>061-270500-
CENTRAL ILLINOIS

CITY           SKY/WX    TMP DP  RH WIND       PRES   REMARKS
PONTIAC        CLOUDY    31  30  98 S5        29.89F FOG     WCI  26
BLOOMINGTON    CLOUDY    30  30 100 SW7       29.88F FOG     WCI  23
DECATUR        CLOUDY    31  30  96 SW6       29.89F FOG     WCI  25
PEORIA         CLOUDY    32  30  92 CALM      29.89S FOG
LACON*         CLOUDY    29  28  96 CALM      29.88S FOG
LINCOLN*       CLOUDY    32  31  94 CALM      29.90F FOG
SPRINGFIELD    CLOUDY    33  29  85 SW3       29.89S
TAYLORVILLE    CLOUDY    32  30  93 S6        29.89F WCI  26
$$

ILZ033-039-045-046-055>057-062-063-270500-
EAST-CENTRAL ILLINOIS

CITY           SKY/WX    TMP DP  RH WIND       PRES   REMARKS
CHAMPAIGN      FRZ DRZL  30  28  92 S7        29.89F FOG     WCI  23
DANVILLE*      DRIZZLE   28  27  98 S5        29.88F WCI  22
RANTOUL*       CLOUDY    30  29  96 S8        29.88F FOG     WCI  23
MATTOON        CLOUDY    29  27  92 S7        29.89F FOG     WCI  22
PARIS*         CLOUDY    28  28  99 NE7       29.92F FOG     WCI  21
$$

ILZ079-100>102-270500-
SOUTHWEST ILLINOIS

CITY           SKY/WX    TMP DP  RH WIND       PRES   REMARKS
ALTON          CLOUDY    34  31  86 SW5       29.91F WCI  30
BELLEVILLE     CLOUDY    35  32  88 VRB1      29.91F
CAHOKIA*       CLOUDY    35  30  82 CALM      29.92F
SPARTA*        CLOUDY    34  30  85 SW10      29.92F WCI  26
$$

ILZ064>066-069>071-074>076-080>082-084>086-088>090-092>094-270500-
SOUTH-CENTRAL ILLINOIS

CITY           SKY/WX    TMP DP  RH WIND       PRES   REMARKS
CARBONDALE     CLOUDY    35  30  82 SW6       29.93F WCI  30
CAIRO*         CLEAR     31  29  92 N3        29.95S
EFFINGHAM*     CLOUDY    31  28  90 CALM      29.93S FOG
MARION         CLOUDY    37  32  81 SW5       29.93F WCI  34
MT. VERNON     CLOUDY    34  27  75 S5        29.92S WCI  30
CENTRALIA*     CLOUDY    33  28  83 CALM      29.91S
SALEM*         CLOUDY    34  30  85 NE3       29.92R
METROPOLIS*    CLOUDY    37  33  87 CALM      29.94F
$$

ILZ067-068-072-073-078-083-087-091-270500-
SOUTHEAST ILLINOIS

CITY           SKY/WX    TMP DP  RH WIND       PRES   REMARKS
LAWRENCEVILLE  CLOUDY    29  27  92 S6        29.94S FOG     WCI  23
FLORA*         CLOUDY    30  29  96 CALM      29.93S FOG
FAIRFIELD*     CLOUDY    31  29  91 SE3       29.91F
HARRISBURG*    CLOUDY    33  32  96 S5        29.94F WCI  28
ROBINSON*      CLOUDY    28  28  96 SE5       29.95S FOG     WCI  23
CARMI*         CLOUDY    32  32 100 SE6       29.94S WCI  26
$$

ABBREVIATIONS USED IN REMARKS
   TC - TEMPERATURE IN CELSIUS
  WCI - WIND CHILL INDEX
   HX - HEAT INDEX
  VSB - VISIBILITY
$$




USA.gov is the U.S. government's official web portal to all federal, state and local government web resources and services.